Kecskemet, Hungary

11:09 AM CET on January 19, 2018 (GMT +0100)
Kecskemet

Weather History for LHKE - April, 2013

Change the Weather History Date:

Wednesday, April 10, 2013

  Actual Average (LHBP) Record (LHBP)
Temperature  
Mean Temperature 51 °F -  
Max Temperature 60 °F 56 °F 77 °F (2009)
Min Temperature 42 °F 37 °F 21 °F (2012)
Degree Days  
Heating Degree Days 14    
Growing Degree Days 1 (Base 50)    
Moisture  
Dew Point 42 °F    
Average Humidity 78    
Maximum Humidity 100    
Minimum Humidity 45    
Precipitation  
Precipitation 0.00 in - - ()
Sea Level Pressure  
Sea Level Pressure 29.82 in    
Wind  
Wind Speed 6 mph ()    
Max Wind Speed 18 mph    
Max Gust Speed 31 mph    
Visibility 4.8 miles    
Events Rain , Thunderstorm    
Averages and records for this station are not official NWS values.
T = Trace of Precipitation, MM = Missing Value Source: Averaged Metar Reports

Daily Weather History Graph

Daily Weather History Graph

Search for Another Location

Airport or City:

Trip Planner

Search our weather history database for the weather conditions in past years. The results will help you decide how hot, cold, wet, or windy it might be!

Date:

Astronomy

Apr. 10, 2013 Rise Set
Actual Time 6:02 AM CEST 7:22 PM CEST
Civil Twilight 5:31 AM CEST 7:54 PM CEST
Nautical Twilight 4:53 AM CEST 8:32 PM CEST
Astronomical Twilight 4:13 AM CEST 9:13 PM CEST
Moon 5:47 AM CEST (4/10) 7:43 PM CEST (4/10)
Length of Visible Light 14h 22m
Length of Day
13h 19m
New Moon, 0% of the Moon is Illuminated
Apr 10
New Moon
Apr 18
First Quarter
Apr 25
Full
May 2
Last Quarter
May 10
New

Hourly Weather History & Observations

Time (CEST) Temp. Windchill Dew Point Humidity Pressure Visibility Wind Dir Wind Speed Gust Speed Precip Events Conditions
12:15 AM 46.4 °F - 44.6 °F 93% 29.80 in 6.2 mi SE 2.2 mph - N/A   Mostly Cloudy
12:45 AM 46.4 °F 44.4 °F 44.6 °F 93% 29.80 in 6.2 mi SE 4.5 mph - N/A   Overcast
1:15 AM 46.4 °F 43.0 °F 44.6 °F 93% 29.80 in 6.2 mi SE 6.7 mph - N/A   Mostly Cloudy
1:45 AM 46.4 °F 43.0 °F 44.6 °F 93% 29.80 in - SE 6.7 mph - N/A   Clear
2:15 AM 46.4 °F 43.0 °F 44.6 °F 93% 29.80 in 5.0 mi SE 6.7 mph - N/A   Unknown
2:45 AM 44.6 °F 40.8 °F 44.6 °F 100% 29.80 in 3.7 mi SE 6.7 mph - N/A   Unknown
3:15 AM 44.6 °F 40.8 °F 44.6 °F 100% 29.77 in 3.1 mi SE 6.7 mph - N/A   Scattered Clouds
3:45 AM - - - N/A% - 1.9 mi SE 6.7 mph - N/A   Overcast
4:15 AM 42.8 °F 40.2 °F 42.8 °F 100% 29.77 in 1.9 mi SSE 4.5 mph - N/A   Mostly Cloudy
4:45 AM 42.8 °F 38.7 °F 42.8 °F 100% 29.77 in 1.9 mi SSE 6.7 mph - N/A   Mostly Cloudy
5:15 AM 42.8 °F 40.2 °F 42.8 °F 100% 29.77 in 1.9 mi South 4.5 mph - N/A   Mostly Cloudy
5:45 AM 44.6 °F - 44.6 °F 100% 29.77 in 2.5 mi South 2.2 mph - N/A   Overcast
6:15 AM 44.6 °F 42.3 °F 44.6 °F 100% 29.77 in 2.5 mi South 4.5 mph - N/A   Mostly Cloudy
6:45 AM - - - N/A% - 6.2 mi SW 6.7 mph - N/A   Overcast
7:15 AM 48.2 °F - 44.6 °F 87% 29.77 in - SW 6.7 mph - N/A   Clear
7:45 AM 48.2 °F - 44.6 °F 87% 29.80 in - SSW 6.7 mph - N/A   Clear
8:15 AM 50.0 °F - 44.6 °F 82% 29.80 in - SW 6.7 mph - N/A   Clear
8:45 AM 50.0 °F - 44.6 °F 82% 29.80 in - SW 6.7 mph - N/A   Clear
9:15 AM 51.8 °F - 44.6 °F 76% 29.80 in 6.2 mi WSW 8.9 mph - N/A   Mostly Cloudy
9:45 AM - - - N/A% - 6.2 mi SW 6.7 mph - N/A   Scattered Clouds
10:15 AM 51.8 °F - 42.8 °F 71% 29.80 in 6.2 mi West 8.9 mph - N/A   Mostly Cloudy
10:45 AM 53.6 °F - 42.8 °F 67% 29.80 in 6.2 mi WSW 8.9 mph - N/A   Mostly Cloudy
11:15 AM 53.6 °F - 42.8 °F 67% 29.80 in 6.2 mi West 6.7 mph - N/A   Mostly Cloudy
11:45 AM 55.4 °F - 42.8 °F 63% 29.80 in 6.2 mi West 8.9 mph - N/A   Scattered Clouds
1:45 PM 59.0 °F - 41.0 °F 51% 29.80 in 6.2 mi WNW 11.2 mph - N/A   Scattered Clouds
2:15 PM 59.0 °F - 39.2 °F 48% 29.80 in 6.2 mi WNW 11.2 mph - N/A   Scattered Clouds
2:45 PM 60.8 °F - 39.2 °F 45% 29.80 in 6.2 mi WNW 13.4 mph - N/A   Scattered Clouds
3:15 PM 60.8 °F - 39.2 °F 45% 29.80 in 6.2 mi WNW 13.4 mph - N/A   Scattered Clouds
3:45 PM - - - N/A% - 1.9 mi NW 11.2 mph - N/A Rain , Thunderstorm Light Rain Showers
4:15 PM 59.0 °F - 37.4 °F 45% 29.83 in 6.2 mi North 8.9 mph - N/A   Mostly Cloudy
4:45 PM 57.2 °F - 39.2 °F 51% 29.83 in 6.2 mi NNW 11.2 mph 31.3 mph N/A   Mostly Cloudy
5:15 PM 53.6 °F - 37.4 °F 54% 29.86 in 6.2 mi NW 17.9 mph - N/A Rain Light Rain Showers
5:45 PM 50.0 °F - 46.4 °F 87% 29.86 in 6.2 mi NW 6.7 mph - N/A   Mostly Cloudy
6:15 PM 55.4 °F - 42.8 °F 63% 29.86 in 6.2 mi WSW 6.7 mph - N/A   Scattered Clouds
6:45 PM - - - N/A% - 0.7 mi Variable 4.5 mph - N/A   Clear
7:15 PM 50.0 °F - 41.0 °F 71% 29.86 in 6.2 mi WNW 6.7 mph - N/A   Scattered Clouds
7:45 PM 48.2 °F - 41.0 °F 76% 29.86 in - WNW 6.7 mph - N/A   Clear
8:15 PM 48.2 °F - 41.0 °F 76% 29.89 in - WNW 4.5 mph - N/A   Clear
8:45 PM 46.4 °F 44.4 °F 41.0 °F 81% 29.89 in - WNW 4.5 mph - N/A   Clear
9:15 PM 46.4 °F - 42.8 °F 87% 29.89 in - West 2.2 mph - N/A   Clear
9:45 PM - - - N/A% - 0.7 mi Variable 4.5 mph - N/A   Clear
10:15 PM 44.6 °F 42.3 °F 41.0 °F 87% 29.92 in 5.0 mi WSW 4.5 mph - N/A   Clear
10:45 PM 46.4 °F 44.4 °F 41.0 °F 81% 29.92 in 5.0 mi SW 4.5 mph - N/A   Clear
11:15 PM 48.2 °F - 41.0 °F 76% 29.92 in - WSW 4.5 mph - N/A   Clear
11:45 PM 44.6 °F 42.3 °F 39.2 °F 81% 29.92 in - WSW 4.5 mph - N/A   Clear